Tekamah, NE

9:48 PM CDT on October 19, 2017 (GMT -0500)
Tekamah

Weather History for KTQE - December, 2012

Change the Weather History Date:

Saturday, December 29, 2012

  Actual Average Record
Temperature  
Mean Temperature 8 °F -  
Max Temperature 18 °F 32 °F 61 °F (1984)
Min Temperature -2 °F 13 °F -7 °F (1990)
Degree Days  
Heating Degree Days 57    
Moisture  
Dew Point 2 °F    
Average Humidity 80    
Maximum Humidity 92    
Minimum Humidity 67    
Precipitation  
Precipitation 0.00 in - - ()
Sea Level Pressure  
Sea Level Pressure 30.22 in    
Wind  
Wind Speed 6 mph (SW)    
Max Wind Speed 12 mph    
Max Gust Speed -    
Visibility 4 miles    
Events Fog , Snow    
Averages and records for this station are not official NWS values.
T = Trace of Precipitation, MM = Missing Value Source: NWS Daily Summary

Daily Weather History Graph

Daily Weather History Graph

Search for Another Location

Airport or City:

Trip Planner

Search our weather history database for the weather conditions in past years. The results will help you decide how hot, cold, wet, or windy it might be!

Date:

Astronomy

Dec. 29, 2012 Rise Set
Actual Time 7:51 AM CST 5:02 PM CST
Civil Twilight 7:20 AM CST 5:34 PM CST
Nautical Twilight 6:45 AM CST 6:09 PM CST
Astronomical Twilight 6:11 AM CST 6:42 PM CST
Moon 6:38 PM CST (12/29) 8:24 AM CST (12/29)
Length of Visible Light 10h 14m
Length of Day
9h 10m
Full, 98% of the Moon is Illuminated
Dec 29
Full
Jan 4
Last Quarter
Jan 11
New
Jan 18
First Quarter
Jan 26
Full

Hourly Weather History & Observations

Time (CST) Temp. Windchill Dew Point Humidity Pressure Visibility Wind Dir Wind Speed Gust Speed Precip Events Conditions
12:18 AM 17.6 °F 7.3 °F 12.2 °F 79% 30.12 in 5.0 mi NW 8.1 mph - 0.00 in   Overcast
12:54 AM 18.0 °F 5.4 °F 12.0 °F 78% 30.16 in 5.0 mi NW 11.5 mph - 0.00 in   Haze
1:54 AM 15.1 °F 2.5 °F 10.0 °F 80% 30.17 in 5.0 mi WNW 10.4 mph - 0.00 in   Haze
2:54 AM 12.9 °F 1.6 °F 8.1 °F 81% 30.19 in 6.0 mi NW 8.1 mph - 0.00 in Snow Blowing Snow
3:54 AM 12.0 °F 5.9 °F 7.0 °F 80% 30.20 in 7.0 mi NW 3.5 mph - N/A   Overcast
4:34 AM 6.8 °F - 3.2 °F 85% 30.15 in 5.0 mi Calm Calm - N/A   Scattered Clouds
4:54 AM 1.9 °F -7.6 °F -0.0 °F 91% 30.21 in 4.0 mi WSW 4.6 mph - N/A   Clear
5:06 AM 1.4 °F -11.3 °F -0.4 °F 92% 30.15 in 4.0 mi West 6.9 mph - N/A   Partly Cloudy
5:54 AM -0.9 °F -12.7 °F -2.9 °F 91% 30.23 in 2.5 mi WSW 5.8 mph - N/A   Clear
6:01 AM -2.2 °F -14.2 °F -7.6 °F 78% 30.17 in 1.8 mi WSW 5.8 mph - N/A   Haze
6:08 AM -0.4 °F -12.0 °F -4.0 °F 85% 30.17 in 0.2 mi WSW 5.8 mph - N/A Fog Light Freezing Fog
6:16 AM -0.4 °F -8.3 °F -2.2 °F 92% 30.17 in 0.2 mi WSW 3.5 mph - N/A Fog Light Freezing Fog
6:37 AM 1.4 °F -6.2 °F -2.2 °F 85% 30.17 in 0.2 mi SW 3.5 mph - N/A Fog Light Freezing Fog
6:54 AM -0.0 °F - -7.1 °F 72% 30.24 in 0.2 mi Calm Calm - N/A   Haze
7:54 AM 3.0 °F -6.4 °F -4.0 °F 73% 30.25 in 0.2 mi SW 4.6 mph - N/A   Haze
8:06 AM 1.4 °F -8.3 °F -4.0 °F 78% 30.18 in 0.2 mi SSW 4.6 mph - N/A   Haze
8:30 AM 1.4 °F - -4.0 °F 78% 30.18 in 1.2 mi Calm Calm - N/A   Haze
8:47 AM 3.2 °F -6.2 °F -2.2 °F 78% 30.20 in 2.5 mi SSW 4.6 mph - N/A   Haze
8:54 AM 5.0 °F - -2.9 °F 70% 30.25 in 2.5 mi Calm Calm - N/A   Haze
9:11 AM 6.8 °F - -2.2 °F 67% 30.20 in 3.0 mi Calm Calm - N/A   Haze
9:54 AM 6.1 °F -0.9 °F -2.0 °F 69% 30.27 in 3.0 mi SSW 3.5 mph - N/A   Haze
10:54 AM 10.9 °F 1.4 °F 1.9 °F 67% 30.27 in 5.0 mi SW 5.8 mph - N/A   Haze
11:54 AM 10.9 °F -0.8 °F 3.9 °F 73% 30.25 in 6.0 mi WSW 8.1 mph - N/A   Haze
12:54 PM 12.9 °F 2.6 °F 6.1 °F 74% 30.23 in 6.0 mi SW 6.9 mph - 0.00 in   Haze
1:54 PM 14.0 °F 5.1 °F 7.0 °F 74% 30.22 in 6.0 mi South 5.8 mph - N/A   Haze
2:54 PM 14.0 °F - 8.1 °F 77% 30.22 in 4.0 mi Calm Calm - N/A   Haze
3:54 PM 12.0 °F 2.7 °F 6.1 °F 77% 30.24 in 4.0 mi SE 5.8 mph - N/A   Haze
5:54 PM 9.0 °F -5.9 °F 3.9 °F 80% 30.26 in 5.0 mi SSE 11.5 mph - N/A   Haze
6:54 PM 7.0 °F - 3.0 °F 84% 30.27 in 5.0 mi Calm Calm - N/A   Clear
7:54 PM 7.0 °F -3.3 °F 3.9 °F 87% 30.28 in 4.0 mi SE 5.8 mph - N/A   Clear
8:54 PM 3.9 °F -6.9 °F -0.9 °F 80% 30.27 in 4.0 mi SSE 5.8 mph - N/A   Haze
9:54 PM 3.0 °F -10.5 °F -0.0 °F 87% 30.27 in 4.0 mi SSE 8.1 mph - N/A   Clear
10:54 PM 8.1 °F 1.4 °F 3.9 °F 83% 30.27 in 4.0 mi SE 3.5 mph - N/A   Clear
11:54 PM 6.1 °F - 1.9 °F 83% 30.26 in 3.0 mi Calm Calm - N/A   Clear